Location: Harrisburg
(40.2740°N, 76.8850°W)
Time: 19:56:10
(UTC-05:00)

ISS - Visible Passes

Search period start: 22 February 2018 00:00
Search period end: 04 March 2018 00:00
Orbit: 402 x 407 km, 51.6° (Epoch: 23 February)

Date Brightness Start Highest point End Pass type
(mag) Time Alt. Az. Time Alt. Az. Time Alt. Az.
25 Feb -1.2 05:50:25 10° S 05:52:53 20° SE 05:55:21 10° E visible
26 Feb -0.6 05:00:17 10° SE 05:00:50 10° SE 05:01:24 10° ESE visible
27 Feb -3.0 05:41:26 10° SW 05:44:36 50° SE 05:47:47 10° ENE visible
28 Feb -1.9 04:51:44 23° SSE 04:52:26 25° SE 04:55:11 10° ENE visible
01 Mar -3.8 05:34:40 24° WSW 05:36:25 65° NW 05:39:41 10° NE visible
02 Mar -2.9 04:44:45 49° E 04:44:45 49° E 04:47:22 10° ENE visible
03 Mar -0.2 03:54:43 11° ENE 03:54:43 11° ENE 03:54:49 10° ENE visible
03 Mar -2.7 05:27:22 26° WNW 05:28:20 31° NNW 05:31:18 10° NE visible
